Location: Miles
(41.4492°N, 81.6087°W)
Time: 22:33:31
(UTC+00:00)

Courier 1B Rocket - Pass Details

Date: 15 September 2024
Orbit: 920 x 1201 km, 28.2° (Epoch: 09 October)

Event Time Altitude Azimuth Distance (km) Brightness Sun altitude
Rises 19:31:59 0° 203° (SSW) 3,608 8.7 41.3°
Reaches altitude 10° 19:36:55 10° 170° (S) 2,726 7.8 40.7°
Maximum altitude 19:38:43 11° 154° (SSE) 2,666 7.6 40.4°
Drops below altitude 10° 19:40:33 10° 138° (SE) 2,780 7.5 40.2°
Sets 19:45:45 0° 106° (ESE) 3,817 7.8 39.4°
